Location: Lachepaillet
(43.4918°N, 1.4874°W)
Time: 23:16:06
(UTC+00:00)

Cosmos 1805 - Pass Details

Date: 15 May 2026
Orbit: 410 x 414 km, 82.5° (Epoch: 11 June)

Event Time Altitude Azimuth Distance (km) Brightness Sun altitude
Rises 22:04:48 0° 343° (NNW) 2,375 8.0 -21.9°
Reaches altitude 10° 22:06:56 10° 334° (NNW) 1,504 6.7 -22.1°
Enters shadow 22:09:52 35° 270° (W) 701 4.0 -22.4°
